Weather History for Three Rivers, MI

Change the Weather History Date:

Tuesday, December 11, 2012

  Actual Average Record
Temperature  
Mean Temperature 30 °F -  
Max Temperature 34 °F 36 °F 58 °F (1949)
Min Temperature 27 °F 22 °F -2 °F (1958)
Degree Days  
Heating Degree Days 35    
Moisture  
Dew Point 23 °F    
Average Humidity 76    
Maximum Humidity 92    
Minimum Humidity 60    
Precipitation  
Precipitation 0.00 in - - ()
Sea Level Pressure  
Sea Level Pressure 30.01 in    
Wind  
Wind Speed 5 mph (SW)    
Max Wind Speed 16 mph    
Max Gust Speed 20 mph    
Visibility 10 miles    
Events Snow    
Averages and records for this station are not official NWS values.
T = Trace of Precipitation, MM = Missing Value Source: NWS Daily Summary

Daily Weather History Graph

Daily Weather History Graph

Search for Another Location

Airport:

Trip Planner

Search our weather history database for the weather conditions in past years. The results will help you decide how hot, cold, wet, or windy it might be!

Date:

Astronomy

Dec. 11, 2012 Rise Set
Actual Time 8:00 AM EST 5:11 PM EST
Civil Twilight 7:28 AM EST 5:42 PM EST
Nautical Twilight 6:53 AM EST 6:17 PM EST
Astronomical Twilight 6:19 AM EST 6:51 PM EST
Moon 5:53 AM EST (12/11) 3:50 PM EST (12/11)
Length of Visible Light 10h 13m
Length of Day
9h 10m
Waning Crescent, 4% of the Moon is Illuminated
Dec 11
Waning Crescent
Dec 13
New
Dec 20
First Quarter
Dec 28
Full
Jan 4
Last Quarter

Hourly Weather History & Observations

Time (EST) Temp. Windchill Dew Point Humidity Pressure Visibility Wind Dir Wind Speed Gust Speed Precip Events Conditions
12:15 AM 32.0 °F - 26.6 °F 80% 29.88 in 10.0 mi Calm Calm - N/A   Overcast
12:34 AM 31.8 °F - 27.1 °F 83% 29.89 in 10.0 mi Calm Calm - N/A   Overcast
12:55 AM 31.1 °F - 26.6 °F 83% 29.90 in 10.0 mi Calm Calm - N/A   Overcast
1:15 AM 32.0 °F - 27.5 °F 83% 29.89 in 10.0 mi Calm Calm - N/A   Overcast
1:34 AM 32.2 °F - 26.4 °F 79% 29.89 in 4.0 mi Calm Calm - N/A Snow Light Snow
1:55 AM 31.8 °F 27.3 °F 25.9 °F 79% 29.89 in 7.0 mi NW 4.6 mph - N/A Snow Light Snow
2:15 AM 31.5 °F - 25.5 °F 79% 29.90 in 5.0 mi Calm Calm - N/A Snow Light Snow
2:34 AM 29.8 °F - 25.5 °F 84% 29.90 in 10.0 mi Calm Calm - N/A   Overcast
2:55 AM 30.2 °F - 25.5 °F 83% 29.91 in 10.0 mi Calm Calm - N/A   Overcast
3:15 AM 30.2 °F - 25.7 °F 83% 29.92 in 10.0 mi Calm Calm - N/A   Overcast
3:35 AM 30.0 °F - 26.1 °F 85% 29.92 in 10.0 mi Calm Calm - N/A   Overcast
3:55 AM 30.0 °F - 25.9 °F 85% 29.93 in 10.0 mi Calm Calm - N/A   Overcast
4:15 AM 30.2 °F - 25.9 °F 84% 29.93 in 10.0 mi Calm Calm - N/A   Overcast
4:35 AM 30.2 °F - 26.6 °F 86% 29.93 in 10.0 mi Calm Calm - N/A   Overcast
4:55 AM 30.6 °F - 27.5 °F 88% 29.92 in 10.0 mi Calm Calm - N/A   Overcast
5:14 AM 30.7 °F 26.0 °F 28.0 °F 90% 29.93 in 5.0 mi SSW 4.6 mph - N/A Snow Light Snow
5:35 AM 30.9 °F 26.2 °F 28.4 °F 90% 29.93 in 1.5 mi SW 4.6 mph - N/A Snow Light Snow
5:55 AM 30.9 °F - 28.9 °F 92% 29.94 in 3.0 mi Calm Calm - N/A Snow Light Snow
6:14 AM 30.7 °F 27.3 °F 28.6 °F 92% 29.95 in 7.0 mi WSW 3.5 mph - N/A Snow Light Snow
6:35 AM 30.2 °F 25.4 °F 27.5 °F 90% 29.95 in 10.0 mi WSW 4.6 mph - N/A   Overcast
6:55 AM 30.2 °F 25.4 °F 27.3 °F 89% 29.96 in 10.0 mi WSW 4.6 mph - N/A   Overcast
7:14 AM 30.0 °F 24.1 °F 25.7 °F 84% 29.97 in 10.0 mi WSW 5.8 mph - N/A   Overcast
7:35 AM 29.1 °F 23.0 °F 24.6 °F 83% 29.98 in 10.0 mi WSW 5.8 mph - N/A   Mostly Cloudy
7:55 AM 28.0 °F 20.8 °F 23.7 °F 84% 29.99 in 10.0 mi SW 6.9 mph - N/A   Scattered Clouds
8:15 AM 27.5 °F 21.1 °F 23.0 °F 83% 30.00 in 10.0 mi SW 5.8 mph - N/A   Scattered Clouds
8:35 AM 28.4 °F 20.4 °F 23.0 °F 80% 30.00 in 10.0 mi SW 8.1 mph - N/A   Mostly Cloudy
8:55 AM 28.2 °F 23.1 °F 22.3 °F 78% 30.00 in 10.0 mi WSW 4.6 mph - N/A   Mostly Cloudy
9:15 AM 29.1 °F 22.1 °F 22.5 °F 76% 30.01 in 10.0 mi SW 6.9 mph - N/A   Scattered Clouds
9:35 AM 29.8 °F 23.9 °F 23.5 °F 77% 30.01 in 10.0 mi SW 5.8 mph - N/A   Mostly Cloudy
9:54 AM 29.8 °F 22.2 °F 23.9 °F 79% 30.02 in 10.0 mi WSW 8.1 mph - N/A   Overcast
10:15 AM 30.0 °F 21.7 °F 23.9 °F 78% 30.02 in 10.0 mi SW 9.2 mph - N/A   Overcast
10:35 AM 30.6 °F 23.1 °F 24.1 °F 77% 30.02 in 10.0 mi SW 8.1 mph - N/A   Overcast
10:54 AM 31.3 °F 22.7 °F 23.7 °F 74% 30.03 in 10.0 mi SW 10.4 mph - N/A   Mostly Cloudy
11:15 AM 32.0 °F 24.2 °F 22.3 °F 67% 30.03 in 10.0 mi WSW 9.2 mph - N/A   Scattered Clouds
11:35 AM 32.4 °F 25.3 °F 23.5 °F 70% 30.03 in 10.0 mi WSW 8.1 mph - N/A   Scattered Clouds
11:54 AM 31.8 °F 22.3 °F 21.4 °F 65% 30.03 in 10.0 mi SW 12.7 mph - N/A   Scattered Clouds
12:15 PM 32.4 °F 23.5 °F 21.9 °F 65% 30.03 in 10.0 mi SW 11.5 mph 17.3 mph N/A   Mostly Cloudy
12:35 PM 33.1 °F 23.9 °F 20.8 °F 61% 30.03 in 10.0 mi SSW 12.7 mph 18.4 mph N/A   Mostly Cloudy
12:54 PM 33.3 °F 25.1 °F 20.7 °F 60% 30.03 in 10.0 mi SW 10.4 mph - N/A   Overcast
1:15 PM 31.5 °F 21.8 °F 19.9 °F 62% 30.03 in 10.0 mi SW 12.7 mph 18.4 mph N/A   Mostly Cloudy
1:35 PM 32.0 °F 26.4 °F 21.9 °F 66% 30.03 in 10.0 mi WSW 5.8 mph - N/A   Mostly Cloudy
1:55 PM 32.4 °F 23.0 °F 21.4 °F 64% 30.03 in 10.0 mi SSW 12.7 mph 19.6 mph N/A   Mostly Cloudy
2:15 PM 32.9 °F 22.4 °F 22.1 °F 65% 30.02 in 10.0 mi SSW 16.1 mph - N/A   Scattered Clouds
2:35 PM 32.5 °F 23.7 °F 21.9 °F 65% 30.02 in 10.0 mi SW 11.5 mph 17.3 mph N/A   Scattered Clouds
2:55 PM 32.5 °F 23.7 °F 21.2 °F 63% 30.02 in 10.0 mi SW 11.5 mph - N/A   Scattered Clouds
3:15 PM 32.0 °F 22.5 °F 20.7 °F 63% 30.02 in 10.0 mi SW 12.7 mph - N/A   Scattered Clouds
3:35 PM 32.0 °F 21.6 °F 20.3 °F 62% 30.03 in 10.0 mi SSW 15.0 mph 19.6 mph N/A   Scattered Clouds
3:55 PM 31.6 °F 22.1 °F 20.7 °F 64% 30.03 in 10.0 mi SSW 12.7 mph - N/A   Scattered Clouds
4:14 PM 32.0 °F 22.5 °F 21.0 °F 64% 30.04 in 10.0 mi SSW 12.7 mph - N/A   Scattered Clouds
4:35 PM 31.6 °F 22.6 °F 20.7 °F 64% 30.04 in 10.0 mi SW 11.5 mph - N/A   Clear
4:55 PM 31.1 °F 21.9 °F 21.2 °F 67% 30.04 in 10.0 mi SSW 11.5 mph - N/A   Clear
5:14 PM 30.7 °F 22.0 °F 21.6 °F 69% 30.04 in 10.0 mi SSW 10.4 mph - N/A   Clear
5:35 PM 30.2 °F 20.8 °F 21.4 °F 70% 30.05 in 10.0 mi SSW 11.5 mph 16.1 mph N/A   Clear
5:55 PM 30.2 °F 21.3 °F 21.6 °F 70% 30.05 in 10.0 mi SSW 10.4 mph - N/A   Clear
6:14 PM 30.0 °F 21.1 °F 21.6 °F 71% 30.05 in 10.0 mi SSW 10.4 mph - N/A   Clear
6:35 PM 30.0 °F 21.7 °F 21.4 °F 70% 30.06 in 10.0 mi SSW 9.2 mph - N/A   Clear
6:55 PM 29.7 °F 20.7 °F 21.7 °F 72% 30.07 in 10.0 mi SSW 10.4 mph - N/A   Clear
7:15 PM 29.3 °F 20.8 °F 21.9 °F 74% 30.07 in 10.0 mi SSW 9.2 mph - N/A   Clear
7:35 PM 29.3 °F 22.3 °F 21.9 °F 74% 30.08 in 10.0 mi SW 6.9 mph - N/A   Clear
7:55 PM 29.3 °F 24.3 °F 21.9 °F 74% 30.09 in 10.0 mi SW 4.6 mph - N/A   Clear
8:15 PM 29.1 °F 23.0 °F 21.9 °F 74% 30.09 in 10.0 mi SW 5.8 mph - N/A   Clear
8:35 PM 28.2 °F 23.1 °F 21.7 °F 77% 30.10 in 10.0 mi SW 4.6 mph - N/A   Clear
8:55 PM 28.4 °F 22.2 °F 21.9 °F 77% 30.11 in 10.0 mi SW 5.8 mph - N/A   Clear
9:15 PM 27.7 °F 21.3 °F 21.9 °F 79% 30.12 in 10.0 mi SSW 5.8 mph - N/A   Clear
9:35 PM 28.0 °F 21.7 °F 22.1 °F 78% 30.12 in 10.0 mi SW 5.8 mph - N/A   Scattered Clouds
9:55 PM 28.0 °F 21.7 °F 22.1 °F 78% 30.12 in 10.0 mi SW 5.8 mph - N/A   Scattered Clouds
10:15 PM 28.4 °F 21.2 °F 22.5 °F 78% 30.12 in 10.0 mi SW 6.9 mph - N/A   Scattered Clouds
10:34 PM 28.4 °F 21.2 °F 22.5 °F 78% 30.12 in 10.0 mi SW 6.9 mph - N/A   Clear
10:55 PM 28.2 °F 23.1 °F 22.5 °F 79% 30.13 in 10.0 mi SW 4.6 mph - N/A   Clear
11:15 PM 27.0 °F 19.5 °F 22.1 °F 82% 30.14 in 10.0 mi SSW 6.9 mph - N/A   Clear
11:34 PM 27.0 °F 19.5 °F 22.5 °F 83% 30.14 in 10.0 mi SSW 6.9 mph - N/A   Clear
11:55 PM 27.1 °F 20.7 °F 22.6 °F 83% 30.15 in 10.0 mi SW 5.8 mph - N/A   Clear